Simultaneous Nadir Overpasses (SNOs) Predictions

Prediction of SNOs between GOES-16 and NOAA-20 Satellite Orbit:

Table of predicted SNOs for the next 14.0 days since TLE Epoch: 6/12/2020
Index Date Time (GOES-16) GOES-16 Lat,Lon NOAA-20 Lat,Lon Distance(km) Time Diff (sec)
1 06/13/2020 18:17:05 -0.01, -75.18 0.53, -72.77 273.97 80
2 06/15/2020 06:38:52 0.01, -75.18 0.64, -78.04 325.82 80
3 06/16/2020 06:17:27 0.00, -75.19 -0.35, -73.51 191.52 80
4 06/17/2020 18:39:23 -0.00, -75.21 -0.80, -78.82 410.54 80
5 06/18/2020 18:23:19 0.00, -75.23 0.24, -74.29 107.20 80
6 06/20/2020 06:45:05 -0.01, -75.24 0.99, -79.55 491.85 80
7 06/21/2020 06:23:40 -0.01, -75.25 -0.06, -75.03 25.82 80
8 06/23/2020 18:26:51 0.00, -75.29 -0.10, -75.80 57.90 80
9 06/24/2020 18:10:46 0.00, -75.31 0.89, -71.26 460.34 80
10 06/26/2020 06:32:33 -0.00, -75.33 0.29, -76.53 137.72 80




NCC Satellite Simultaneous Nadir Overpasses (SNOs) Prediction Service
